This demonstration page uses our WeatherBlox Daily Observations layout. Learn more.

Left ArrowRight Arrow

39.92423, -83.80882

Hourly Observations for January 11, 2015

Temp ( °F °C ) Dew Point ( °F °C ) Humidity (%) Winds ( mph kmh ) Pressure ( in mb ) Visibility ( mi km ) Precip ( " mm )
12:56 am 00:56 Cloudy 19 -7.2 7 -13.8 60 60 S 6 9 30.47 1032 10 16 0.00 0.00
1:56 am 01:56 Cloudy 20 -6.6 7 -13.8 57 57 S 5 7 30.46 1032 10 16 0.00 0.00
2:56 am 02:56 Cloudy 21 -6.1 7 -13.8 55 55 S 7 11 30.47 1032 10 16 0.00 0.00
3:56 am 03:56 Cloudy 22 -5.5 8 -13.3 55 55 S 3 6 30.46 1032 10 16 0.00 0.00
4:56 am 04:56 Cloudy 23 -5 10 -12.2 57 57 S 3 6 30.46 1031 10 16 0.00 0.00
5:56 am 05:56 Cloudy 23 -5 9 -12.7 55 55 S 6 9 30.46 1032 10 16 0.00 0.00
6:56 am 06:56 Cloudy 23 -5 9 -12.7 55 55 S 7 11 30.45 1031 10 16 0.00 0.00
7:56 am 07:56 Cloudy 25 -3.8 10 -12.2 53 53 S 5 7 30.46 1031 9 14 0.00 0.00
8:56 am 08:56 Cloudy 25 -3.8 11 -11.6 55 55 S 7 11 30.45 1031 9 14 0.00 0.00
9:56 am 09:56 Cloudy 27 -2.7 12 -11.1 53 53 S 9 15 30.45 1031 9 14 0.00 0.00
10:56 am 10:56 Cloudy 29 -1.6 12 -11.1 49 49 SSW 8 13 30.45 1031 9 14 0.00 0.00
11:56 am 11:56 Cloudy 30 -1.1 13 -10.5 49 49 SSW 9 15 30.42 1030 9 14 0.00 0.00
12:56 pm 12:56 Cloudy 32 0 14 -10 47 47 S 7 11 30.40 1029 10 16 0.00 0.00
1:56 pm 13:56 Cloudy 32 0 16 -8.8 52 52 S 7 11 30.40 1029 9 14 0.00 0.00
2:56 pm 14:56 Cloudy 33 0.5 17 -8.3 52 52 S 6 9 30.40 1029 9 14 0.00 0.00
3:56 pm 15:56 Cloudy 33 0.5 18 -7.7 55 55 S 6 9 30.39 1029 9 14 0.00 0.00
4:56 pm 16:56 Cloudy 33 0.5 20 -6.6 59 59 SSE 6 9 30.39 1029 9 14 0.00 0.00
5:56 pm 17:56 Cloudy 33 0.5 22 -5.5 64 64 S 6 9 30.39 1029 10 16 0.00 0.00
6:13 pm 18:13 Cloudy 34 1 21 -6 60 60 S 5 7 30.39 1029 10 16 0.00 0.00
6:24 pm 18:24 Cloudy with Light Wintry Mix 34 1 21 -6 60 60 S 6 9 30.39 1029 8 13 0.00 0.03
6:56 pm 18:56 Cloudy with Light Wintry Mix 33 0.5 25 -3.8 73 73 S 7 11 30.41 1030 5 8 0.00 0.03
7:56 pm 19:56 Cloudy 33 0.5 28 -2.2 82 82 SSW 8 13 30.40 1030 7 11 0.00 0.03
8:56 pm 20:56 Cloudy with Light Freezing Rain 33 0.5 30 -1.1 89 89 SSW 9 15 30.40 1030 4 6 0.02 0.51
9:56 pm 21:56 Cloudy with Light Freezing Rain 33 0.5 31 -0.5 93 93 S 7 11 30.37 1028 6 10 0.04 1.02
10:13 pm 22:13 Cloudy with Light Freezing Rain 34 1 30 -1 87 87 S 6 9 30.36 1028 5 8 0.01 0.25
10:42 pm 22:42 Cloudy with Light Freezing Rain 34 1 32 0 93 93 S 7 11 30.36 1028 7 11 0.01 0.25
10:56 pm 22:56 Cloudy with Light Freezing Rain 33 0.5 32 0 96 96 S 8 13 30.35 1028 7 11 0.01 0.25
11:04 pm 23:04 Cloudy with Light Freezing Rain 34 1 32 0 93 93 S 9 15 30.36 1028 6 10 0.00 0.03
11:14 pm 23:14 Cloudy with Light Wintry Mix 34 1 32 0 93 93 S 9 15 30.36 1028 5 8 0.01 0.25
11:56 pm 23:56 Cloudy with Mist and Fog 33 0.5 32 0 96 96 S 6 9 30.31 1026 5 8 0.04 1.02

Powered by AerisWeather